This is the latest recevied weather packets stored in our database for station/object WY1B. If no packets are shown the sender has not sent any weather packets the latest 10 day(s).
| Time | Temp. | Humidity | Pressure | Rain* | Wind** | Luminosity | Snow |
|---|---|---|---|---|---|---|---|
| 1787952889 | 46.67° C | 17% | 1003.4 hPa | 0 mm | - | 638 W/m² | - |
| 1787952584 | 46.11° C | 17% | 1003.8 hPa | 0 mm | - | 658 W/m² | - |
| 1787952282 | 46.67° C | 16% | 1003.9 hPa | 0 mm | - | 673 W/m² | - |
| 1787951980 | 46.67° C | 16% | 1003.7 hPa | 0 mm | - | 681 W/m² | - |
| 1787951680 | 46.67° C | 17% | 1003.8 hPa | 0 mm | - | 696 W/m² | - |
| 1787951376 | 46.67° C | 16% | 1004 hPa | 0 mm | - | 706 W/m² | - |
| 1787951072 | 46.67° C | 17% | 1004.1 hPa | 0 mm | - | 723 W/m² | - |
| 1787950766 | 47.22° C | 17% | 1004.3 hPa | 0 mm | - | 732 W/m² | - |
| 1787950462 | 46.67° C | 16% | 1004.5 hPa | 0 mm | - | 755 W/m² | - |
| 1787950159 | 46.67° C | 16% | 1004.3 hPa | 0 mm | - | 771 W/m² | - |
| 1787949854 | 46.11° C | 16% | 1004.6 hPa | 0 mm | - | 796 W/m² | - |
| 1787949555 | 46.11° C | 17% | 1004.6 hPa | 0 mm | - | 815 W/m² | - |
| 1787949254 | 46.11° C | 17% | 1004.6 hPa | 0 mm | - | 843 W/m² | - |
| 1787948950 | 45° C | 18% | 1004.6 hPa | 0 mm | - | 844 W/m² | - |
| 1787948646 | 45.56° C | 18% | 1004.8 hPa | 0 mm | - | 870 W/m² | - |
| 1787948341 | 45.56° C | 17% | 1004.9 hPa | 0 mm | - | 910 W/m² | - |
| 1787948040 | 45.56° C | 17% | 1005 hPa | 0 mm | - | 781 W/m² | - |
| 1787947740 | 45° C | 18% | 1005.1 hPa | 0 mm | - | 573 W/m² | - |
| 1787947434 | 45° C | 18% | 1005.2 hPa | 0 mm | - | 686 W/m² | - |
| 1787947133 | 45° C | 18% | 1005.2 hPa | 0 mm | - | 706 W/m² | - |
| 1787946833 | 45.56° C | 18% | 1005.5 hPa | 0 mm | - | 618 W/m² | - |
| 1787946530 | 45.56° C | 17% | 1005.7 hPa | 0 mm | - | 793 W/m² | - |
| 1787946227 | 45.56° C | 18% | 1005.5 hPa | 0 mm | - | 964 W/m² | - |
| 1787945926 | 45.56° C | 18% | 1005.8 hPa | 0 mm | - | 781 W/m² | - |
| 1787945621 | 45.56° C | 18% | 1006 hPa | 0 mm | - | 867 W/m² | - |
* Rain latest hour (hover to see other rain measurements)
** Current wind speed in m/s (hover to see current wind gust speed)